Regional Weather Roundup
Issued by NWS

Home | Current Version | Previous Version | Graphics & Text | Print | Product List | Glossary On
Versions: 1 2 3 4 5 6 7 8 9 10 11 12 13 14 15 16 17 18 19 20 21 22 23 24 25 26 27 28 29 30 31 32 33 34 35 36 37 38 39 40 41 42 43 44 45 46 47 48 49 50
000
ASUS43 KIND 261509
RWRIN

WEATHER ROUNDUP FOR INDIANA
NATIONAL WEATHER SERVICE INDIANAPOLIS IN
1000 AM EST WED NOV 26 2014

NOTE: "FAIR" INDICATES FEW OR NO CLOUDS BELOW 12,000 FEET WITH NO
SIGNIFICANT WEATHER AND/OR OBSTRUCTIONS TO VISIBILITY.

* - STATION DOES NOT REPORT WEATHER SUCH AS PRECIPITATION OR FOG.

+ - STATION NOT QUALITY CONTROLLED BY THE NATIONAL WEATHER SERVICE.
    USE DATA WITH CAUTION...ESPECIALLY DEWPOINT AND RELATIVE
    HUMIDITY OBSERVATIONS.

INZ001>003-010>013-019-020-261600-
NORTHWEST INDIANA

CITY           SKY/WX    TMP DP  RH WIND       PRES   REMARKS
GARY /AIRPORT/ CLOUDY    27  19  74 E9        30.17S WCI  17
KNOX *+        CLOUDY    25  20  80 E8        30.15F WCI  16
LA PORTE +     CLOUDY    27  21  80 SE7       30.16S WCI  19
MICHIGAN CITY+ CLOUDY    27  19  74 CALM      30.17F
MONTICELLO +   CLOUDY    25  20  80 E6        30.16S WCI  18
RENSSELAER +   CLOUDY    27  25  93 E7        30.15F WCI  19
VALPARAISO     CLOUDY    24  18  77 E9        30.17R WCI  14

$$

LMZ046-743>745-261600-
SOUTHERN LAKE MICHIGAN

STATION/POSITION TIME  TEMP WIND        PRES
                       AIR  DIR/SP/G
                 (UTC) (F)  (DEG/KT/KT) (MB)
MICHIGAN CITY    1500   24   60/  7/ 12   N/A

$$

INZ004-005-014>016-021>024-261600-
NORTH CENTRAL INDIANA

CITY           SKY/WX    TMP DP  RH WIND       PRES   REMARKS
ELKHART        CLOUDY    27  18  69 SE8       30.16F WCI  18
GOSHEN         CLOUDY    26  19  74 E7        30.16S WCI  18
LOGANSPORT +   CLOUDY    27  19  74 SE9       30.16S WCI  17
PERU/GRISSOM   CLOUDY    26  25  95 SE8       30.15R WCI  17
ROCHESTER +    PTSUNNY   28  25  86 E7        30.16S FOG     WCI  21
SOUTH BEND     CLOUDY    26  19  74 SE10      30.16F WCI  16
WARSAW +       LGT SNOW  27  21  80 E7        30.16S WCI  19

$$

INZ006>009-017-018-025>027-261600-
NORTHEAST INDIANA

CITY           SKY/WX    TMP DP  RH WIND       PRES   REMARKS
ANGOLA *+      CLOUDY    25  19  80 E7        30.15S WCI  17
AUBURN +       CLOUDY    28  21  74 E6        30.17S WCI  22
FORT WAYNE     CLOUDY    27  20  75 E7        30.17S WCI  19
HUNTINGTON +   CLOUDY    26  21  81 E6        30.16S WCI  19

$$

INZ028-029-035-036-043>045-051>053-261600-
WEST CENTRAL INDIANA

CITY           SKY/WX    TMP DP  RH WIND       PRES   REMARKS
GREENCASTLE +  CLOUDY    28  23  80 E7        30.14S WCI  21
LAFAYETTE      CLOUDY    25  20  81 E9        30.15F WCI  15
TERRE HAUTE    CLOUDY    26  21  81 SE8       30.16R WCI  18

$$

INZ030>032-037>040-046>048-054>057-064-065-261600-
CENTRAL INDIANA

CITY           SKY/WX    TMP DP  RH WIND       PRES   REMARKS
CP ATTERBURY + CLOUDY    32  25  74 N3        30.16R
COLUMBUS       CLOUDY    30  27  86 N5        30.16R WCI  25
FRANKFORT +    CLOUDY    27  23  84 E8        30.16S WCI  19
INDIANAPOLIS   CLOUDY    28  20  71 E5        30.14R WCI  23
-EAGLE CREEK   CLOUDY    27  21  78 SE7       30.15R WCI  19
KOKOMO *+      CLOUDY    27  19  74 E9        30.16R WCI  17
MARION +         N/A     26  20  80 E3        30.16S
MT COMFORT *+  CLOUDY    28  18  64 NE6       30.15R WCI  22
SHELBYVILLE    CLOUDY    31  23  72 E6        30.14R WCI  25
ZIONSVILLE +   CLOUDY    28  20  74 E3        30.15R

$$

INZ033-034-041-042-049-050-058-059-261600-
EAST CENTRAL INDIANA

CITY           SKY/WX    TMP DP  RH WIND       PRES   REMARKS
MUNCIE         CLOUDY    27  21  78 E8        30.15R WCI  19

$$

INZ060-061-067>069-081>083-085>088-261600-
SOUTHWEST INDIANA

CITY           SKY/WX    TMP DP  RH WIND       PRES   REMARKS
EVANSVILLE     MOSUNNY   30  26  85 E3        30.15F
HUNTINGBURG *+ PTSUNNY   30  25  80 NE7       30.14F WCI  23
WASHINGTON +   CLOUDY    30  25  83 CALM      30.15R

$$

INZ062-063-066-070>080-084-089>092-261600-
SOUTH CENTRAL AND SOUTHEAST INDIANA

CITY           SKY/WX    TMP DP  RH WIND       PRES   REMARKS
BLOOMINGTON    CLOUDY    28  23  81 VRB5      30.13F WCI  23
SEYMOUR +      CLOUDY    34  27  75 NE3       30.16

$$




USA.gov is the U.S. government's official web portal to all federal, state and local government web resources and services.